Weather History for South Lake Tahoe, CA

Change the Weather History Date:

Thursday, January 10, 2013

  Actual Average Record
Temperature  
Mean Temperature 16 °F 30 °F  
Max Temperature 28 °F 43 °F 59 °F (1990)
Min Temperature 4 °F 16 °F 1 °F (1974)
Degree Days  
Heating Degree Days 49 35  
Month to date heating degree days 399 357  
Since 1 July heating degree days 3261 3540  
Cooling Degree Days 0 0  
Month to date cooling degree days 0 0  
Year to date cooling degree days 0 0  
Moisture  
Dew Point 11 °F    
Average Humidity 62    
Maximum Humidity 83    
Minimum Humidity 40    
Precipitation  
Precipitation 0.06 in - 2.08 in (1936)
Month to date precipitation 0.31  
Year to date precipitation 0.31  
Sea Level Pressure  
Sea Level Pressure 29.87 in    
Wind  
Wind Speed 2 mph (NE)    
Max Wind Speed 15 mph    
Max Gust Speed 21 mph    
Visibility 6 miles    
Events Snow    
T = Trace of Precipitation, MM = Missing Value Source: NWS Daily Summary

Daily Weather History Graph

Daily Weather History Graph

Search for Another Location

Airport:

Trip Planner

Search our weather history database for the weather conditions in past years. The results will help you decide how hot, cold, wet, or windy it might be!

Date:

Astronomy

Jan. 10, 2013 Rise Set
Actual Time 7:18 AM PST 4:57 PM PST
Civil Twilight 6:48 AM PST 5:26 PM PST
Nautical Twilight 6:15 AM PST 5:59 PM PST
Astronomical Twilight 5:43 AM PST 6:31 PM PST
Moon 6:03 AM PST (1/10) 4:10 PM PST (1/10)
Length of Visible Light 10h 37m
Length of Day
9h 38m
Waning Crescent, 1% of the Moon is Illuminated
Jan 10
Waning Crescent
Jan 11
New
Jan 18
First Quarter
Jan 26
Full
Feb 3
Last Quarter

Hourly Weather History & Observations

Time (PST) Temp. Windchill Dew Point Humidity Pressure Visibility Wind Dir Wind Speed Gust Speed Precip Events Conditions
12:23 AM 24.8 °F - 17.6 °F 74% 29.79 in 1.2 mi Calm Calm - 0.01 in Snow Light Snow
12:28 AM 24.8 °F - 17.6 °F 74% 29.79 in 0.8 mi Calm Calm - 0.02 in Snow Light Snow
12:35 AM 23.0 °F - 17.6 °F 80% 29.79 in 0.2 mi Calm Calm - 0.03 in Snow Heavy Snow
12:53 AM 23.0 °F - 18.0 °F 81% 29.76 in 0.8 mi Calm Calm - 0.04 in Snow Light Snow
12:59 AM 23.0 °F - 17.6 °F 80% 29.80 in 0.8 mi Calm Calm - 0.00 in Snow Light Snow
1:05 AM 21.2 °F 16.4 °F 17.6 °F 86% 29.80 in 1.2 mi NNE 3.5 mph - 0.00 in Snow Light Snow
1:12 AM 21.2 °F 14.9 °F 15.8 °F 80% 29.80 in 3.0 mi NNE 4.6 mph - 0.00 in Snow Light Snow
1:22 AM 19.4 °F - 15.8 °F 86% 29.81 in 4.0 mi Calm Calm - 0.00 in Snow Light Snow
1:31 AM 17.6 °F 12.3 °F 14.0 °F 86% 29.81 in 8.0 mi Variable 3.5 mph - 0.00 in Snow Light Snow
1:44 AM 21.2 °F 12.6 °F 8.6 °F 58% 29.82 in 10.0 mi Variable 6.9 mph - 0.00 in   Partly Cloudy
1:53 AM 21.0 °F 16.2 °F 9.0 °F 60% 29.80 in 10.0 mi Variable 3.5 mph - 0.00 in   Clear
2:53 AM 14.0 °F - 8.1 °F 77% 29.83 in 10.0 mi Calm Calm - N/A   Clear
3:53 AM 10.0 °F - 5.0 °F 80% 29.86 in 10.0 mi Calm Calm - 0.01 in   Clear
4:53 AM 9.0 °F - 3.9 °F 80% 29.86 in 10.0 mi Calm Calm - N/A   Clear
5:53 AM 10.9 °F - 6.1 °F 81% 29.85 in 10.0 mi Calm Calm - N/A   Mostly Cloudy
6:53 AM 10.9 °F - 6.1 °F 81% 29.88 in 10.0 mi Calm Calm - N/A   Partly Cloudy
7:53 AM 12.0 °F - 7.0 °F 80% 29.91 in 10.0 mi Calm Calm - N/A   Partly Cloudy
8:53 AM 17.1 °F - 12.9 °F 84% 29.91 in 10.0 mi Calm Calm - N/A   Overcast
9:53 AM 21.9 °F - 10.0 °F 60% 29.91 in 10.0 mi Calm Calm - N/A   Partly Cloudy
10:53 AM 21.9 °F 17.2 °F 7.0 °F 53% 29.92 in 10.0 mi Variable 3.5 mph - N/A   Partly Cloudy
11:53 AM 23.0 °F 17.0 °F 6.1 °F 48% 29.90 in 10.0 mi Variable 4.6 mph - N/A   Mostly Cloudy
12:53 PM 24.1 °F 17.0 °F 3.9 °F 42% 29.87 in 10.0 mi NE 5.8 mph - N/A   Mostly Cloudy
1:53 PM 27.0 °F 19.5 °F 7.0 °F 43% 29.86 in 10.0 mi Variable 6.9 mph - N/A   Mostly Cloudy
2:17 PM 21.2 °F 11.7 °F 14.0 °F 74% 29.81 in 2.5 mi NE 8.1 mph - 0.00 in Snow Light Snow
2:27 PM 21.2 °F 10.1 °F 12.2 °F 68% 29.82 in 1.2 mi NNE 10.4 mph 16.1 mph 0.00 in Snow Light Snow
2:48 PM 21.2 °F 13.6 °F 14.0 °F 74% 29.83 in 0.2 mi NE 5.8 mph - 0.00 in Snow Heavy Snow
2:53 PM 21.0 °F 16.2 °F 14.0 °F 74% 29.95 in 0.5 mi ENE 3.5 mph - 0.00 in Snow Snow
3:02 PM 21.2 °F - 14.0 °F 74% 29.83 in 2.0 mi Calm Calm - 0.00 in Snow Light Snow
3:04 PM 21.2 °F - 14.0 °F 74% 29.83 in 5.0 mi Calm Calm - 0.00 in Snow Light Snow
3:18 PM 21.2 °F 14.9 °F 12.2 °F 68% 29.83 in 2.5 mi NE 4.6 mph - 0.00 in Snow Light Snow
3:26 PM 21.2 °F - 12.2 °F 68% 29.83 in 1.5 mi Calm Calm - 0.00 in Snow Light Snow
3:31 PM 21.2 °F - 12.2 °F 68% 29.83 in 3.0 mi Calm Calm - 0.00 in Snow Light Snow
3:53 PM 21.0 °F - 12.9 °F 71% 29.98 in 8.0 mi Calm Calm - 0.00 in   Overcast
4:00 PM 21.2 °F - 12.2 °F 68% 29.84 in 2.0 mi Calm Calm - 0.00 in Snow Light Snow
4:03 PM 21.2 °F 12.6 °F 10.4 °F 63% 29.84 in 0.8 mi NNE 6.9 mph - 0.01 in Snow Light Snow
4:15 PM 21.2 °F 14.9 °F 15.8 °F 80% 29.84 in 0.2 mi NNE 4.6 mph - 0.02 in Snow Heavy Snow
4:22 PM 19.4 °F 14.3 °F 15.8 °F 86% 29.85 in 1.0 mi NE 3.5 mph - 0.02 in Snow Light Snow
4:27 PM 19.4 °F - 14.0 °F 80% 29.85 in 3.0 mi Calm Calm - 0.02 in Snow Light Snow
4:35 PM 19.4 °F - 14.0 °F 80% 29.85 in 9.0 mi Calm Calm - 0.02 in   Mostly Cloudy
4:37 PM 19.4 °F - 14.0 °F 80% 29.85 in 10.0 mi Calm Calm - 0.02 in   Scattered Clouds
4:53 PM 19.9 °F 14.9 °F 14.0 °F 78% 30.00 in 10.0 mi SSW 3.5 mph - 0.02 in   Mostly Cloudy
5:53 PM 17.1 °F - 10.9 °F 77% 30.01 in 10.0 mi Calm Calm - N/A   Partly Cloudy
6:53 PM 12.0 °F 5.9 °F 7.0 °F 80% 30.05 in 10.0 mi SW 3.5 mph - N/A   Clear
8:53 PM 12.9 °F 3.8 °F 7.0 °F 77% 30.05 in 10.0 mi SSE 5.8 mph - 0.00 in   Overcast
9:53 PM 15.1 °F 7.7 °F 8.1 °F 74% 30.00 in 10.0 mi South 4.6 mph - N/A   Overcast
10:53 PM 10.9 °F 4.7 °F 3.9 °F 73% 30.03 in 10.0 mi SSW 3.5 mph - N/A   Clear
11:53 PM 18.0 °F - 7.0 °F 62% 30.00 in 10.0 mi Calm Calm - N/A   Overcast